Wind_Speed
26 23 19 17 18 20 22 24 27 31 35 38 39 40 41 42 43 43 42 41 40 39 37 34 34 33 32 31 32 32 33 34 35 37 38 39 40 41 42 42 43 44 44 44 44 43 43 42 41 41 43 45 48 49 49 49 49 49 50 50 51 52 52 52 53 53 54 54 55 56 57 57 58 59 60 61 63 64 65 66 66 66 66 67 68
29 30 25 20 17 18 19 21 23 27 31 35 38 38 37 37 37 38 38 37 36 38 39 39 38 37 35 34 34 35 34 34 34 35 36 37 38 39 40 42 43 44 44 44 43 41 41 41 41 41 41 43 48 51 51 51 51 52 53 54 54 54 53 53 53 53 54 55 55 56 57 58 59 59 60 60 61 62 63 64 65 64 64 65 67
31 33 31 26 20 17 17 17 20 23 27 30 33 36 36 36 34 34 35 35 35 35 36 37 38 38 38 38 38 38 38 38 37 36 36 37 38 39 40 41 42 42 43 43 41 41 42 43 42 41 38 37 41 46 49 50 52 53 53 53 53 53 52 52 51 52 52 53 54 54 56 57 58 58 58 59 60 60 60 61 63 63 63 64 66
38 36 35 32 26 20 15 15 17 20 22 24 28 31 33 34 34 34 34 34 35 34 34 34 35 36 38 40 41 40 40 40 39 38 39 39 40 40 41 41 42 43 43 43 43 44 45 44 41 39 37 37 39 41 41 43 46 49 51 51 51 52 52 52 52 52 52 52 53 53 55 56 57 58 58 58 59 60 60 60 62 63 63 63 64
38 39 38 34 31 25 18 14 15 17 19 20 22 25 28 31 33 34 34 34 34 34 34 34 33 34 36 37 39 40 39 39 39 38 37 38 39 38 37 38 39 40 41 41 42 43 43 40 38 37 36 36 39 38 36 36 38 43 46 48 49 50 50 50 50 51 51 52 53 54 55 56 56 57 59 58 59 60 61 61 62 62 63 63 64
38 40 38 34 31 28 22 17 14 13 15 17 18 20 22 25 27 29 31 32 32 32 32 34 34 33 34 34 35 36 37 37 38 37 35 34 34 34 33 32 32 33 34 35 36 37 38 37 36 35 36 36 37 37 37 36 37 37 39 42 44 46 47 47 46 47 48 50 51 53 54 56 56 56 57 57 57 58 59 59 60 61 62 63 63
38 42 42 37 32 28 23 20 17 14 13 13 15 16 18 19 21 22 23 24 25 26 27 28 29 29 30 30 31 32 33 33 33 32 30 28 29 29 26 24 23 25 26 27 28 31 33 34 35 35 36 37 37 37 38 39 37 35 35 37 39 40 40 40 41 42 44 46 48 50 51 52 53 53 54 54 55 56 57 57 58 59 60 62 63
36 39 43 42 37 31 24 20 18 17 15 14 13 14 15 16 16 17 18 18 17 18 18 19 20 21 21 20 21 22 23 24 24 23 22 22 23 23 20 19 19 19 20 21 22 26 29 31 33 36 37 37 36 36 38 40 38 37 38 38 38 37 37 39 41 43 44 46 48 50 51 51 51 52 52 51 52 53 54 56 58 60 62 64 66
35 35 38 41 38 33 27 22 20 19 18 17 16 14 14 15 15 15 15 15 15 14 14 13 13 14 14 13 14 15 15 16 16 17 18 18 19 19 18 17 18 19 19 19 20 23 28 29 30 34 37 37 36 35 38 42 41 40 40 40 39 40 41 42 43 43 44 46 48 49 50 50 49 49 48 47 47 47 49 50 52 53 55 57 60
33 32 35 37 34 31 29 28 27 24 20 19 19 19 18 16 16 16 14 14 15 14 14 13 12 12 13 13 14 15 16 16 18 19 19 18 19 19 19 19 19 20 21 20 19 21 25 28 29 31 34 37 37 38 41 43 43 40 39 37 38 39 40 41 41 41 44 46 47 46 45 44 43 43 43 43 43 44 45 47 48 49 49 50 52
38 33 33 33 30 27 28 30 31 30 27 25 24 24 24 23 21 18 16 15 16 16 16 14 14 14 15 15 16 17 18 19 22 23 22 21 21 21 20 20 21 21 22 22 21 21 23 26 29 30 31 33 35 38 40 42 41 38 36 35 36 38 39 39 40 42 44 46 46 43 41 40 39 39 39 39 40 41 42 43 45 46 47 47 48
43 35 32 33 31 29 30 30 30 32 33 35 33 28 27 28 27 23 20 19 18 18 18 17 16 17 17 17 19 19 20 21 24 26 26 24 23 22 20 20 20 21 22 23 23 22 23 25 27 29 30 31 33 35 36 38 37 35 34 35 37 39 40 40 40 41 44 46 44 41 39 39 38 37 37 37 37 37 38 39 40 41 42 43 43
48 44 42 41 39 35 35 35 33 35 38 40 40 37 31 30 31 29 25 23 21 20 19 19 19 19 19 20 20 20 21 23 26 28 28 27 25 22 19 19 20 20 20 21 23 24 24 24 25 27 29 30 32 33 34 34 34 34 35 36 39 41 42 41 41 42 45 46 43 40 39 38 38 37 37 37 37 37 37 37 37 37 37 38 39
55 55 53 50 46 43 44 45 42 40 41 42 42 42 38 35 35 34 31 28 26 24 22 22 22 23 23 23 23 22 23 24 25 27 28 28 26 22 18 18 18 18 18 20 22 24 25 26 25 26 27 28 29 31 32 32 33 35 36 38 40 41 40 39 41 44 45 43 40 38 38 37 37 37 36 37 37 38 38 39 38 38 38 38 38
59 59 56 56 56 54 54 55 50 44 43 43 43 45 44 42 40 38 36 35 32 29 28 28 27 26 26 27 27 27 26 25 26 27 27 27 26 24 21 19 18 18 18 18 18 21 24 26 27 26 26 27 28 28 30 31 32 34 35 36 36 36 36 38 41 41 39 36 34 34 34 34 34 34 35 35 36 36 37 38 39 39 40 40 40
63 61 59 59 61 61 59 58 55 48 43 42 43 46 48 47 45 44 42 41 38 35 34 34 33 31 30 30 30 30 30 29 29 30 29 27 25 23 21 20 19 18 18 17 17 19 21 23 25 27 27 27 27 27 28 28 30 31 31 31 32 32 34 36 36 35 32 32 32 32 32 33 33 33 34 35 35 36 36 37 38 39 40 41 42
67 64 62 61 62 63 59 56 52 47 42 39 40 44 49 50 49 49 48 45 42 40 38 37 38 36 34 32 32 32 32 32 31 31 30 28 27 25 23 22 22 21 20 19 19 19 20 21 22 24 24 25 25 25 26 27 28 29 30 30 30 31 32 33 33 33 33 34 34 34 35 36 37 37 37 37 37 38 38 38 39 40 41 42 42
70 67 63 62 61 57 53 52 49 43 38 36 37 42 48 52 52 52 50 45 42 41 40 40 40 40 38 36 35 35 34 33 32 31 31 29 29 29 28 27 26 25 24 23 22 22 22 22 22 22 23 23 24 25 27 27 27 27 29 30 31 31 32 33 34 35 36 38 38 38 39 40 41 42 41 40 40 41 41 42 42 43 43 43 42
73 71 67 64 60 54 50 51 51 48 43 39 39 43 48 52 55 54 51 47 42 40 42 44 44 42 40 39 39 40 39 37 34 32 32 30 29 30 31 31 30 29 27 26 25 25 25 25 25 25 25 25 25 27 30 31 30 28 29 31 32 33 35 36 37 37 39 41 42 41 41 42 43 44 44 43 43 42 43 44 45 45 45 45 45
76 75 72 67 63 60 57 55 55 55 51 46 46 50 49 46 50 55 54 51 48 45 43 45 46 45 44 43 44 45 45 43 39 36 35 33 32 31 33 34 33 31 29 28 27 27 27 28 29 29 29 28 28 30 33 35 34 32 32 33 34 35 37 38 40 41 42 43 45 45 44 44 44 46 47 47 46 45 44 45 46 47 47 48 48
80 77 75 70 66 65 64 59 55 54 54 52 51 53 50 41 41 52 56 54 53 51 47 45 45 46 48 48 49 51 51 49 45 42 39 37 35 34 34 35 35 34 33 31 29 29 30 31 32 32 32 31 32 33 35 37 37 37 38 38 37 39 40 40 40 42 44 45 47 47 47 47 46 47 49 49 49 48 46 46 47 48 49 49 50
84 81 77 71 67 68 67 63 58 54 55 57 55 52 51 44 39 45 51 53 55 55 53 50 49 49 50 51 52 55 55 53 50 46 43 40 38 37 37 37 37 36 36 34 32 31 33 34 35 35 35 35 36 37 39 41 41 41 41 42 42 44 44 42 42 44 45 46 47 49 49 50 49 49 50 51 52 52 50 48 48 49 50 50 51
87 84 80 74 68 69 70 69 65 60 59 60 56 52 53 51 44 41 43 50 56 59 59 57 55 54 53 53 55 57 58 57 54 50 47 44 41 40 40 39 39 40 39 38 36 34 35 37 37 37 37 37 38 40 42 44 43 42 43 45 46 48 47 45 45 46 47 47 49 49 50 51 51 51 52 52 54 55 54 52 51 51 51 51 52
89 87 85 81 75 72 73 72 68 62 59 58 53 51 55 55 49 40 36 43 52 56 58 60 58 57 57 57 57 59 60 59 58 54 51 48 46 45 43 42 42 43 42 41 40 39 39 39 39 39 39 39 40 41 43 44 44 44 45 47 49 49 49 49 48 48 49 49 50 51 52 52 52 52 52 53 54 57 57 56 55 55 54 53 54
91 90 89 88 83 78 75 73 68 63 61 56 50 51 58 60 55 44 35 35 41 43 45 49 52 53 55 56 58 60 61 60 61 60 56 52 50 49 48 46 45 45 44 43 43 43 43 42 41 40 41 41 41 42 42 44 45 47 48 50 50 51 52 52 51 52 52 52 53 53 54 55 55 54 54 54 54 56 57 58 58 57 57 57 57
91 93 91 90 87 83 79 74 69 63 59 57 55 58 64 64 61 53 42 37 37 37 36 38 43 46 49 53 57 61 62 62 63 63 61 58 55 53 52 50 48 47 46 45 44 45 45 44 43 43 44 44 43 42 42 44 46 48 50 51 52 53 54 55 54 55 56 56 56 56 57 58 59 58 58 57 57 57 58 59 59 58 59 59 59
90 93 93 91 89 86 83 79 74 67 62 60 61 64 66 66 65 60 49 42 43 45 44 42 41 42 44 48 54 58 60 62 64 65 64 62 59 56 54 52 51 50 49 46 46 46 46 46 46 46 46 44 43 43 44 46 48 49 50 51 52 55 57 58 58 59 60 61 61 60 60 61 62 61 62 62 61 60 60 60 60 60 59 60 61
90 93 95 93 91 89 86 84 80 76 72 65 60 60 63 66 68 65 57 51 51 51 49 47 44 40 38 40 48 56 58 59 61 62 63 63 61 57 54 52 52 52 50 49 49 49 49 49 49 48 47 46 46 47 49 50 49 49 50 52 55 58 60 60 60 62 64 65 65 64 63 63 64 65 65 65 65 64 62 62 62 62 62 62 62
91 93 94 94 93 92 90 88 86 83 80 73 66 65 67 69 71 72 68 64 61 57 54 51 47 40 34 36 46 55 57 55 55 56 58 61 61 58 54 51 51 52 52 52 52 52 52 53 52 51 51 51 51 52 54 54 54 54 55 57 59 61 62 61 62 65 67 69 69 68 66 66 67 68 68 67 67 66 65 64 64 65 65 65 64
92 93 94 95 95 93 92 91 90 88 85 79 74 74 75 75 76 79 79 77 73 69 66 63 58 50 43 43 49 55 55 54 54 54 55 58 60 59 57 55 55 56 57 57 56 55 55 56 55 55 56 55 55 56 57 58 59 59 60 61 62 62 62 64 66 68 70 71 70 69 69 69 69 69 69 68 68 67 66 66 65 66 67 67 66
93 93 94 95 95 95 93 93 93 91 88 84 81 79 79 79 80 82 84 85 84 81 78 75 72 67 60 58 59 60 58 57 57 57 59 61 61 61 60 59 60 62 63 62 60 57 57 58 59 58 58 57 58 59 60 61 62 63 64 64 65 65 67 69 71 72 72 71 71 71 71 71 71 71 70 70 69 68 67 67 66 66 68 68 67
94 94 95 95 95 95 94 94 95 93 90 87 86 84 83 82 82 83 85 86 85 82 80 80 80 78 73 70 70 70 68 66 64 64 64 64 64 64 64 63 63 64 65 64 63 62 61 62 62 61 61 62 63 64 65 66 67 67 68 68 69 70 71 73 73 73 73 73 72 72 73 72 71 71 71 71 70 69 68 68 67 66 66 67 67
96 95 96 96 96 96 95 94 94 94 91 89 88 87 86 86 86 85 85 85 83 79 77 77 79 79 77 76 77 77 75 73 71 69 67 66 66 67 67 67 66 65 66 66 66 66 66 67 67 67 67 68 69 70 71 71 71 70 71 71 71 72 73 74 74 74 74 74 74 73 73 72 71 71 71 71 71 70 69 68 67 67 66 65 66
97 96 95 96 96 96 95 93 91 91 90 89 90 89 86 86 88 88 87 85 83 80 76 74 74 75 75 76 78 79 79 77 75 71 68 68 68 69 70 70 69 69 70 72 71 70 71 71 71 71 71 72 73 73 74 75 75 75 75 74 74 74 74 74 74 74 74 74 73 73 73 73 72 72 72 73 72 71 69 69 68 67 66 65 65
98 96 94 94 95 95 95 92 90 89 88 86 87 89 89 87 86 87 87 85 83 80 79 77 74 74 74 75 76 78 78 77 76 74 71 70 70 71 71 71 71 72 74 75 75 75 75 75 74 75 75 75 76 77 77 77 77 77 77 77 76 76 76 76 76 75 74 74 73 74 74 75 75 74 73 73 73 72 70 69 68 66 66 65 65
98 96 94 93 93 93 93 92 91 90 88 83 80 83 87 89 88 87 86 86 84 82 81 80 79 79 78 78 78 78 77 76 76 76 75 74 73 74 74 75 74 75 76 76 77 78 79 79 79 79 78 78 78 78 78 78 78 78 78 78 78 78 78 78 78 77 77 76 76 75 76 76 76 76 74 74 74 73 72 70 68 67 66 65 65
98 96 93 92 91 90 90 91 91 89 87 84 79 77 81 86 90 90 88 86 85 85 84 83 82 81 81 80 80 80 79 78 79 80 80 79 78 77 78 79 79 79 79 79 79 81 83 85 84 83 82 81 80 80 81 81 81 80 80 80 80 81 81 80 80 80 80 79 79 78 78 77 77 77 75 74 74 74 73 72 70 68 66 66 66
97 95 92 90 89 87 86 88 89 87 85 86 85 82 80 81 85 90 92 90 87 86 85 84 83 81 80 79 80 80 81 82 83 84 84 83 81 80 80 80 82 84 85 85 85 86 88 88 87 86 85 84 83 83 84 84 84 84 84 84 84 84 84 83 82 83 83 83 82 81 81 79 78 77 76 75 75 75 74 73 72 70 68 67 66
95 94 92 90 87 85 84 86 88 88 89 89 90 88 84 79 76 79 86 91 91 89 87 86 85 84 82 81 80 81 84 86 88 88 87 86 86 86 85 85 86 89 90 90 90 90 90 89 88 88 88 87 86 86 86 87 88 88 88 88 87 87 87 86 85 85 86 86 85 84 83 81 79 78 77 76 76 76 76 75 74 73 71 69 67
94 93 92 90 87 85 85 87 88 89 90 90 91 92 90 85 78 76 77 81 85 88 88 88 88 87 86 86 85 86 88 89 90 89 89 88 89 90 90 90 91 92 93 94 93 92 90 89 89 90 90 89 89 89 89 90 90 91 91 91 90 90 90 89 89 88 88 87 86 85 84 83 82 81 80 79 79 78 78 77 76 75 74 72 71
97 94 92 90 90 90 90 91 92 92 91 91 92 91 90 87 85 83 80 78 79 82 85 86 87 87 87 87 87 89 90 91 90 90 89 88 88 88 89 89 90 91 92 93 93 92 91 92 92 92 92 92 92 92 92 93 93 93 93 93 93 93 92 92 92 92 91 90 89 88 86 85 84 84 83 82 82 81 80 79 78 77 75 75 74
99 98 95 93 94 95 95 95 95 94 93 93 93 93 91 88 85 84 83 82 81 81 82 84 85 85 85 86 86 87 88 89 89 89 88 88 88 89 90 91 91 92 93 94 95 95 95 95 95 95 95 94 94 94 94 94 95 95 95 95 95 95 96 96 96 95 93 92 91 89 88 88 87 87 87 86 85 84 82 81 79 78 78 78 78
99 100 99 99 99 100 99 99 97 96 95 93 93 93 94 93 90 87 85 84 83 81 80 80 81 82 83 84 85 85 86 86 87 88 88 89 90 92 93 94 95 96 97 98 98 97 97 97 97 97 97 97 97 96 96 97 97 98 98 99 99 99 99 98 97 96 94 94 93 93 92 92 92 92 92 90 89 87 85 83 81 81 81 81 81
98 99 101 103 103 103 102 102 100 98 97 96 95 94 95 95 94 92 90 89 87 84 81 80 80 81 83 84 85 86 86 86 87 89 90 91 93 94 95 96 97 98 99 99 99 99 99 99 99 99 100 100 100 100 101 101 102 102 102 102 102 101 101 100 99 98 99 99 99 98 98 98 98 98 97 96 94 92 88 86 85 84 84 84 84
97 99 101 103 103 102 102 102 101 101 100 99 98 98 98 97 96 95 94 94 93 92 89 87 85 85 86 86 87 88 89 90 91 92 93 94 95 95 96 98 99 100 101 101 101 101 101 101 102 102 103 103 104 104 105 105 106 106 105 104 104 103 103 103 103 103 103 103 103 102 102 101 101 101 99 98 96 93 90 88 87 86 86 86 86
96 100 102 103 103 102 101 100 101 102 102 102 102 102 101 100 99 98 97 96 95 95 94 94 93 92 92 92 92 92 93 94 95 96 97 97 98 98 99 100 101 102 103 103 104 104 104 104 105 105 105 106 106 107 107 107 107 107 107 106 106 107 107 108 108 107 107 107 107 106 105 104 102 101 98 96 93 90 88 87 87 86 86 86 86
91 98 101 103 103 102 101 101 102 103 104 104 104 104 103 103 102 100 99 98 97 96 95 95 95 95 96 96 97 97 98 99 99 100 101 101 101 102 102 103 104 104 105 106 106 107 107 107 108 108 109 109 109 109 110 110 111 110 110 110 111 113 113 112 111 110 110 109 108 107 105 103 101 99 96 93 91 90 89 88 88 88 88 87 85
84 93 99 102 103 103 103 103 103 104 105 105 105 105 104 103 102 101 100 99 98 98 97 96 96 96 96 97 98 99 100 101 102 102 103 104 104 104 105 105 106 106 107 108 109 110 111 111 112 112 112 113 113 114 114 115 115 114 114 115 115 115 114 113 112 111 110 109 108 106 104 102 100 97 94 92 91 90 90 90 91 91 89 86 82
77 86 94 99 102 104 104 105 105 105 106 106 106 105 104 102 101 100 99 99 99 99 99 98 98 99 99 99 99 99 100 100 101 103 104 106 107 108 108 108 108 109 110 111 112 113 114 114 115 115 116 117 117 118 118 117 117 117 117 116 116 115 115 114 113 112 111 110 108 106 103 100 97 95 93 91 90 90 89 90 89 88 85 81 76
71 78 86 93 99 102 104 105 106 106 107 107 106 105 104 102 102 101 100 99 100 100 100 101 101 102 102 102 102 102 102 102 103 105 106 108 109 110 111 111 112 112 112 113 113 114 115 116 117 118 119 120 121 121 120 118 118 118 119 119 119 118 117 116 114 112 111 108 104 101 98 96 94 93 91 90 88 86 85 84 82 80 77 74 70
68 73 78 85 92 97 101 103 105 106 106 106 106 105 105 104 103 103 102 101 101 101 102 103 104 104 105 105 105 106 107 108 109 110 111 111 112 113 114 115 115 115 115 115 115 116 117 118 119 120 120 121 121 121 120 119 119 120 121 121 120 119 117 116 113 110 107 102 98 96 95 94 92 91 88 86 84 81 79 76 74 72 70 69 67
Wind_Direction
276 270 269 274 277 274 267 263 259 254 251 249 248 247 246 245 244 243 243 243 239 234 234 237 241 245 248 248 249 249 248 247 245 244 244 244 245 246 247 246 245 246 248 252 255 258 262 265 268 271 274 275 274 272 272 271 271 272 273 274 274 275 276 276 277 277 277 277 278 278 279 279 279 279 280 280 280 280 280 281 280 280 280 281 282
283 277 270 267 272 278 274 269 264 259 254 250 248 247 246 244 242 240 239 238 237 232 230 231 235 238 241 244 247 250 253 255 255 254 253 252 252 253 253 253 252 252 252 254 256 260 264 266 269 271 274 277 276 273 270 269 269 270 270 272 273 274 275 276 277 277 278 277 277 277 277 277 278 278 279 280 280 280 281 281 281 281 281 281 282
286 282 276 269 265 270 278 277 270 263 257 252 248 246 245 243 240 238 236 235 234 233 231 232 234 235 237 239 243 247 251 254 258 260 260 261 261 262 262 261 261 261 261 262 263 264 264 264 264 264 262 263 268 272 270 268 267 267 268 269 271 272 274 275 275 276 276 277 277 277 277 277 277 277 278 280 281 281 282 282 282 283 282 282 283
285 280 277 275 267 261 268 278 276 269 263 256 250 245 242 242 240 237 236 236 235 234 233 233 235 236 237 239 242 245 249 252 255 258 260 261 262 264 265 264 265 265 265 265 264 263 263 264 263 260 256 252 257 266 271 270 267 266 267 269 271 273 274 274 275 276 276 277 278 278 278 278 278 278 279 279 280 281 282 282 282 282 282 282 282
272 272 274 275 270 263 260 266 275 275 270 262 254 248 243 240 240 238 238 238 238 238 236 234 235 236 237 239 241 244 246 249 252 255 258 258 259 262 264 264 264 264 263 262 261 261 263 265 263 261 259 255 255 262 271 276 274 270 270 270 272 274 275 277 278 278 278 279 280 280 280 279 279 280 280 280 281 281 282 282 281 281 281 281 281
245 255 265 271 271 269 263 258 265 272 275 270 261 254 247 242 239 238 239 239 239 239 238 236 237 238 239 241 243 245 246 248 251 255 258 258 257 259 263 263 262 261 261 261 260 259 259 259 257 257 258 255 255 261 268 275 278 275 273 273 274 276 278 280 281 281 282 282 281 280 280 279 279 280 281 282 283 283 284 284 283 282 282 282 281
239 249 257 264 269 271 267 263 263 263 264 268 266 260 252 246 242 239 238 238 238 238 238 239 241 243 245 246 247 248 249 249 251 254 256 256 254 254 258 260 259 258 259 259 257 253 252 251 249 250 253 253 253 258 263 268 271 270 271 275 278 279 281 282 284 286 287 286 285 284 283 283 282 281 282 283 283 283 283 283 283 282 282 282 282
241 247 253 260 265 268 269 269 269 267 262 259 260 260 255 250 245 241 238 234 232 232 233 237 240 241 243 246 249 249 249 250 251 252 253 253 251 250 253 257 258 260 262 263 259 251 248 248 247 246 249 250 251 255 259 262 264 266 269 273 276 279 282 285 287 289 291 292 292 290 289 289 289 288 287 287 285 284 283 283 282 281 281 281 281
228 236 247 255 260 265 270 271 267 268 269 267 264 262 260 259 255 249 244 237 230 224 225 232 237 239 242 247 250 251 252 255 260 260 257 257 256 256 257 259 263 267 271 272 265 251 242 242 243 244 245 247 249 252 255 258 263 267 270 272 275 280 283 286 288 290 293 296 296 293 291 291 292 292 293 294 293 293 292 291 290 289 288 287 287
218 231 245 252 255 262 270 271 264 261 265 269 271 271 268 269 266 260 256 252 245 236 232 239 247 252 259 265 263 260 258 263 271 271 266 264 265 264 262 265 271 274 276 277 272 256 243 240 241 243 244 246 248 250 253 257 261 265 269 273 276 279 281 283 286 290 294 298 299 296 294 294 295 296 298 299 300 300 300 300 300 299 298 297 296
212 218 238 252 257 263 271 268 255 252 261 266 269 272 272 273 272 269 267 268 263 251 244 249 259 264 269 274 275 270 265 268 275 276 272 269 270 269 266 269 274 276 277 278 276 269 257 248 245 247 248 248 247 249 252 255 258 264 270 274 278 280 282 285 289 293 296 299 300 298 298 298 299 300 301 302 303 304 304 304 303 302 302 302 301
205 203 221 237 243 252 265 264 246 237 248 259 263 268 272 273 272 273 274 273 271 266 261 262 268 272 272 275 279 278 273 274 279 281 277 272 271 273 272 273 276 277 278 277 276 273 266 256 252 253 253 250 245 244 248 252 258 266 275 280 283 285 287 291 294 296 298 300 300 299 299 300 301 301 302 304 305 307 308 309 308 308 306 306 307
199 200 211 218 222 230 244 253 248 234 234 246 256 263 268 271 271 270 271 271 269 269 271 272 272 272 272 271 274 276 274 276 282 285 281 276 272 272 275 276 275 274 275 274 273 271 267 261 258 257 256 251 246 245 250 256 263 272 279 284 286 287 289 292 295 298 299 300 299 299 300 301 302 304 306 308 310 311 312 313 314 315 315 315 316
201 205 210 209 211 217 225 236 242 239 232 234 245 255 262 269 271 269 267 268 267 265 265 268 267 268 269 268 266 265 266 272 279 282 281 278 275 275 277 278 274 270 270 271 272 270 267 265 262 258 254 252 250 252 257 264 271 276 280 283 286 288 291 295 297 298 299 298 299 300 302 302 304 306 308 310 312 314 315 317 319 321 323 324 326
206 209 210 209 209 212 217 224 231 236 237 236 241 250 258 264 269 269 266 266 268 266 264 264 263 263 266 268 266 264 262 264 270 273 274 274 274 276 279 278 272 268 267 269 272 272 269 268 266 263 260 258 259 261 265 269 273 277 281 285 289 293 297 298 297 297 298 300 302 304 306 307 309 311 312 313 314 316 318 320 323 326 328 330 332
209 211 213 213 211 211 215 220 224 229 236 240 245 252 257 261 265 267 267 266 266 265 264 264 264 262 264 267 267 265 263 264 265 266 268 268 269 272 277 277 274 269 266 267 270 272 270 269 270 270 270 269 270 272 274 276 280 283 287 292 296 298 298 298 298 300 303 306 310 313 316 318 320 321 322 322 321 321 322 324 326 329 331 333 334
209 211 213 212 209 210 216 220 222 227 235 243 252 258 259 260 262 264 266 266 265 263 260 262 264 263 263 266 266 264 265 266 263 261 262 264 266 269 273 275 275 273 269 267 270 272 273 273 273 274 275 276 277 279 281 283 287 290 294 297 298 298 298 300 304 309 312 314 317 320 323 325 327 328 329 330 330 330 329 329 329 330 331 333 335
208 209 210 208 204 206 217 223 223 224 229 238 250 257 258 258 259 261 265 267 268 265 261 260 262 261 261 264 266 266 268 267 262 261 262 262 264 267 270 271 273 275 275 272 273 275 277 280 281 279 279 279 282 286 287 287 289 294 298 300 300 301 304 307 311 314 316 318 320 322 325 326 327 328 329 331 333 334 334 334 333 332 332 332 333
207 208 207 204 199 201 211 221 224 222 217 222 234 242 248 255 258 261 263 265 268 269 265 262 261 259 258 262 265 266 268 267 263 262 264 264 264 265 266 266 268 272 276 277 279 281 284 287 289 288 288 289 292 294 293 291 291 295 301 303 303 305 309 311 313 316 317 318 319 321 323 324 324 325 326 328 330 332 334 335 335 334 334 333 332
206 207 206 203 200 200 204 211 218 218 214 214 223 229 233 243 254 259 261 261 263 268 267 264 263 261 260 263 265 265 266 266 262 261 263 264 263 264 264 265 265 268 273 276 279 282 286 289 291 291 290 292 294 294 293 292 292 295 301 302 302 306 311 312 313 315 316 317 317 318 320 322 323 323 324 325 327 329 330 332 333 333 334 334 333
205 205 206 205 203 202 202 205 210 213 214 213 216 222 223 226 242 255 258 260 263 266 267 265 264 263 262 264 264 264 264 263 261 260 260 260 261 263 265 265 266 267 270 274 277 281 284 287 289 290 290 292 295 294 293 293 295 298 302 302 301 304 309 310 310 313 314 314 315 316 317 319 321 322 322 323 324 325 327 329 330 331 332 333 333
204 203 204 206 205 202 202 203 205 211 217 216 215 221 222 218 227 246 255 261 264 265 265 264 262 261 260 261 262 262 262 262 261 260 259 259 260 262 263 265 266 267 269 272 275 279 283 286 288 291 293 294 296 294 292 293 296 298 301 302 301 302 306 308 309 312 314 314 314 314 315 317 319 320 320 321 321 322 325 327 328 329 330 330 331
204 202 201 202 204 203 203 204 206 211 216 215 216 221 221 217 221 235 250 260 263 261 260 260 260 260 259 259 259 259 260 260 261 259 259 260 262 264 264 265 266 267 269 271 273 276 279 283 287 290 292 292 291 291 291 292 295 297 298 299 299 300 304 307 310 312 313 314 313 313 314 315 316 317 318 319 319 320 322 324 325 326 327 328 328
204 202 200 201 204 206 205 206 208 211 210 208 214 224 225 221 221 228 240 254 260 260 258 258 258 259 260 260 259 258 258 259 259 258 258 261 264 266 267 267 267 268 270 273 276 276 277 281 284 286 288 288 288 289 290 291 292 292 292 294 295 297 302 306 309 310 312 312 312 312 313 313 314 315 315 317 318 318 319 320 322 323 325 326 326
205 203 201 202 206 209 208 206 208 209 207 207 213 225 230 225 222 223 228 239 252 259 263 264 264 263 262 261 259 258 258 259 259 259 259 260 262 264 266 267 268 269 271 274 277 277 277 280 282 283 285 286 287 289 291 291 291 291 291 292 292 295 301 305 306 308 310 311 311 311 311 311 311 312 313 314 315 315 316 317 319 320 322 323 324
206 204 203 203 206 209 210 209 208 206 208 212 215 221 227 226 221 221 221 221 230 241 250 260 268 271 270 267 264 262 262 261 261 261 260 259 260 261 263 265 267 269 272 274 275 277 278 279 281 283 285 286 288 290 291 292 293 292 291 291 290 294 300 304 305 307 308 309 310 310 309 309 309 310 311 312 313 314 314 315 316 317 318 319 321
208 206 204 203 205 209 210 210 208 204 206 212 215 218 224 225 219 217 216 214 218 225 228 234 246 258 267 269 269 269 267 262 260 261 260 260 259 260 262 266 268 269 271 273 274 276 278 279 281 284 286 286 286 287 288 291 293 292 290 289 289 293 299 303 305 306 307 308 309 308 308 308 308 308 309 311 312 313 313 313 314 314 315 316 318
209 207 205 204 204 208 210 210 209 208 207 209 212 214 221 224 220 215 214 214 215 219 223 223 225 236 250 259 265 269 268 262 259 260 261 261 261 261 263 267 268 269 270 272 274 276 277 278 279 282 283 283 283 285 287 289 291 290 289 289 290 294 299 302 303 304 305 306 307 307 306 306 306 307 308 309 311 312 312 312 312 313 313 314 315
210 208 207 205 204 207 209 210 211 212 212 211 211 212 216 221 220 217 217 219 221 224 228 225 221 225 235 246 254 260 260 259 261 263 263 263 263 263 264 265 266 266 267 268 272 273 274 275 277 278 280 281 283 285 287 289 290 291 291 292 293 295 297 298 299 300 302 304 304 305 305 305 305 306 307 308 309 310 311 311 311 311 311 312 314
211 209 208 206 205 206 209 210 212 215 215 215 216 216 218 221 222 220 220 224 228 231 234 233 229 227 228 233 241 248 252 256 262 265 265 264 263 263 263 263 263 264 264 266 268 269 271 274 276 278 280 283 285 287 289 290 291 292 293 293 294 294 294 294 295 297 299 301 302 302 303 304 304 305 306 306 307 308 309 309 310 309 309 311 312
212 210 209 208 206 207 209 210 212 215 216 217 218 220 220 223 224 223 223 226 230 233 236 238 238 236 234 233 236 243 250 255 259 262 265 266 265 264 263 263 262 263 264 265 266 267 270 274 277 280 282 285 285 285 286 287 287 288 288 289 289 289 289 290 293 295 297 298 299 299 301 302 302 303 304 305 306 307 307 308 308 308 308 309 310
213 211 210 209 208 209 210 212 213 214 216 218 220 222 222 223 225 226 227 229 232 235 238 240 242 241 240 238 239 244 250 255 259 263 266 268 268 268 267 266 265 265 265 265 265 266 271 275 278 280 282 282 282 282 282 283 283 284 285 285 286 287 288 290 293 294 295 296 297 298 299 300 301 302 303 304 305 306 307 307 307 307 307 307 308
213 212 211 210 209 209 211 214 215 215 216 218 221 223 224 224 226 228 231 232 233 235 239 242 244 245 243 242 243 247 251 255 260 265 267 268 269 270 270 271 271 270 270 269 268 269 273 276 279 280 281 282 282 283 284 284 285 285 286 286 287 288 289 291 292 294 295 295 296 297 298 299 300 302 303 303 304 305 306 305 305 305 305 305 305
213 213 213 212 211 210 211 214 217 218 218 220 222 224 226 227 228 231 234 235 236 237 238 241 244 246 247 248 249 251 254 257 261 264 266 267 268 269 269 270 270 271 271 271 271 272 274 277 279 281 282 283 284 285 285 286 287 288 288 288 289 290 290 291 292 293 294 295 296 297 298 299 301 302 302 303 303 304 304 304 304 304 303 303 302
213 214 214 214 213 212 211 212 216 219 221 222 225 227 229 229 231 232 234 236 238 239 239 239 241 243 246 248 251 253 256 258 261 263 264 264 265 265 266 267 267 268 268 270 271 272 274 277 279 281 282 283 284 285 286 287 287 288 288 289 290 290 290 291 292 293 293 294 296 297 298 299 300 301 301 302 302 302 302 302 302 302 301 301 300
212 213 214 215 216 215 213 212 215 218 219 221 225 229 231 232 234 234 235 236 237 239 240 241 242 243 244 247 249 252 254 257 259 261 261 261 261 263 264 265 265 265 266 268 269 271 274 276 279 280 281 282 283 284 285 285 285 286 287 288 288 288 289 290 291 292 292 293 294 295 296 298 299 300 300 301 301 301 301 301 301 301 300 299 298
211 212 213 215 216 217 217 215 215 218 219 220 223 228 231 233 234 235 235 236 237 238 240 241 243 244 246 247 249 251 253 254 255 257 258 259 260 261 262 263 264 264 265 266 268 270 273 276 277 278 280 281 282 282 283 283 283 284 285 285 286 286 287 288 289 290 291 291 293 294 295 297 298 298 299 300 300 300 301 301 300 300 299 297 297
211 211 212 214 216 218 220 220 220 220 220 220 222 226 228 231 233 234 235 235 236 237 239 240 242 243 245 247 248 250 251 251 252 254 256 257 258 259 260 261 263 264 265 266 267 270 272 275 276 277 279 280 281 281 282 283 283 284 284 284 285 286 287 287 288 290 291 292 293 295 296 296 297 298 298 300 300 301 301 301 301 301 300 298 297
212 210 210 213 215 217 220 222 223 223 223 222 222 224 226 229 231 233 234 235 236 236 238 239 240 241 242 244 245 247 249 250 251 253 254 256 258 258 259 261 262 264 265 266 268 270 272 274 275 277 279 280 281 282 283 284 284 285 285 285 286 287 288 289 291 292 293 294 295 296 297 297 298 298 299 301 302 302 303 302 302 302 301 301 300
211 211 210 211 213 215 217 221 223 224 225 225 225 226 228 231 233 233 233 234 235 236 237 238 239 239 241 242 244 245 247 250 252 253 255 256 258 260 262 263 263 265 267 268 270 272 273 274 276 277 279 280 281 282 283 284 285 286 286 287 288 289 290 292 292 293 294 295 296 297 298 298 299 300 302 303 304 304 303 303 302 301 301 300 300
209 209 209 211 213 214 215 218 221 223 225 227 228 228 229 231 234 235 235 235 236 237 237 237 238 238 239 241 243 244 246 249 252 254 256 258 260 262 264 265 266 267 268 270 272 274 275 277 278 279 280 281 282 283 284 285 286 287 288 288 290 291 291 292 293 294 294 295 296 297 298 300 301 302 303 304 304 303 302 301 300 298 298 298 297
208 207 207 209 212 214 216 218 220 221 223 226 228 229 228 228 230 234 236 237 238 239 240 241 241 241 242 242 244 246 248 250 252 254 257 259 261 262 263 264 266 267 269 270 272 274 276 278 279 280 281 282 282 283 284 285 286 287 287 288 289 290 291 292 292 293 294 295 296 298 299 300 301 301 302 302 302 301 300 299 297 295 294 294 294
210 208 207 208 211 214 216 218 220 222 223 225 227 229 230 229 229 231 233 236 238 240 242 244 246 247 248 248 250 251 253 254 255 256 257 258 260 261 262 264 266 267 269 271 273 275 277 278 279 280 281 282 282 283 284 284 285 286 286 287 288 289 290 291 292 293 294 295 297 298 299 299 299 300 300 300 300 299 297 295 294 293 292 291 290
211 211 210 210 212 213 215 218 220 222 223 225 226 228 230 231 231 231 233 235 237 239 241 243 246 248 249 251 252 253 253 254 255 256 257 258 259 261 263 265 266 268 270 272 274 275 276 277 278 280 281 282 282 283 283 284 285 285 287 288 290 291 292 293 293 294 295 296 297 297 298 298 298 298 298 298 297 296 295 293 291 290 289 288 288
210 212 213 214 215 215 216 218 221 222 223 225 226 228 229 231 232 233 234 236 237 239 240 241 243 245 247 248 250 251 252 253 254 255 256 258 260 262 264 265 267 268 270 271 272 273 275 276 277 278 280 281 282 283 283 284 285 287 289 290 291 292 292 292 292 293 294 294 295 295 296 296 296 296 296 295 295 294 292 290 289 287 286 286 286
209 211 213 215 217 217 218 219 222 223 224 225 226 228 229 231 232 234 235 236 238 240 241 242 243 244 245 246 248 249 250 252 253 255 257 259 261 262 264 265 266 267 269 270 271 272 274 275 276 277 278 280 281 282 283 284 285 286 287 288 289 288 288 289 290 290 291 291 292 292 293 293 294 294 293 293 292 291 289 288 287 285 285 284 285
210 211 213 216 217 218 219 220 222 224 226 227 228 229 230 232 233 235 236 237 238 240 242 243 245 246 247 249 250 251 252 253 255 256 258 259 261 262 263 265 266 267 268 269 270 271 272 274 275 276 277 278 279 279 280 281 282 283 284 285 285 285 286 287 287 288 289 290 291 291 292 293 293 293 292 291 291 290 289 288 287 286 286 286 285
212 213 214 216 218 219 220 221 222 224 227 228 230 231 232 234 235 237 239 240 240 241 242 243 244 246 248 250 252 253 254 256 257 258 259 260 261 262 263 264 265 266 267 269 270 271 273 274 275 276 277 277 278 278 279 280 281 282 282 283 284 285 286 287 288 290 291 292 292 293 293 293 292 292 291 290 289 289 288 288 287 287 286 286 285
215 215 216 218 219 220 221 222 223 225 227 229 231 232 234 235 237 238 240 241 241 242 243 244 244 245 247 248 250 252 254 255 256 257 259 260 261 263 264 265 266 267 268 269 270 272 273 274 275 276 277 278 278 279 280 281 282 283 284 285 286 287 289 290 291 292 293 293 293 292 292 291 290 289 288 287 287 286 286 286 285 285 284 284 283
216 217 218 219 221 222 223 224 225 226 228 230 232 234 235 236 237 238 240 241 242 243 243 244 245 246 247 248 250 251 253 254 255 257 258 260 261 263 264 266 267 267 268 270 271 272 273 274 275 276 277 278 280 281 282 283 284 285 286 287 288 289 290 291 292 292 292 291 290 290 289 288 288 287 287 286 286 285 284 284 283 283 282 281 280
216 218 219 220 222 223 225 226 227 229 230 232 233 235 236 237 238 239 240 241 242 243 244 245 246 247 248 249 250 251 253 254 255 257 259 260 262 263 264 266 267 268 269 270 271 272 273 274 274 276 277 278 280 281 282 283 283 284 285 286 288 289 290 291 291 290 290 289 288 288 287 287 287 287 286 285 285 284 283 282 281 281 280 279 277
Height
10688 10688 10687 10687 10686 10686 10686 10686 10685 10685 10686 10687 10689 10691 10693 10694 10696 10698 10700 10702 10704 10706 10708 10710 10711 10711 10712 10712 10713 10713 10714 10715 10716 10717 10718 10719 10719 10720 10720 10720 10720 10720 10720 10720 10720 10722 10723 10723 10723 10723 10723 10721 10719 10718 10717 10717 10717 10717 10717 10717 10717 10717 10717 10717 10717 10716 10716 10715 10714 10714 10713 10712 10711 10709 10709 10708 10705 10703 10702 10701 10701 10701 10699 10695 10692
10686 10686 10686 10686 10685 10685 10684 10684 10684 10683 10683 10684 10686 10688 10690 10691 10693 10694 10696 10698 10700 10702 10704 10706 10707 10708 10709 10710 10711 10711 10711 10712 10713 10713 10714 10715 10716 10716 10716 10716 10716 10716 10716 10717 10718 10720 10720 10718 10719 10720 10720 10717 10712 10710 10710 10711 10712 10712 10712 10712 10712 10712 10712 10712 10712 10712 10711 10710 10709 10709 10708 10706 10705 10703 10702 10701 10700 10698 10696 10694 10693 10692 10692 10690 10685
10683 10684 10685 10685 10684 10684 10683 10683 10683 10682 10682 10682 10683 10685 10687 10688 10690 10691 10693 10695 10696 10698 10700 10702 10703 10704 10706 10707 10707 10708 10709 10709 10709 10710 10711 10712 10712 10712 10711 10711 10711 10711 10712 10713 10714 10714 10712 10710 10711 10713 10714 10712 10708 10704 10704 10705 10706 10707 10707 10707 10707 10707 10708 10708 10708 10707 10706 10705 10704 10704 10702 10700 10699 10698 10697 10696 10693 10692 10691 10688 10686 10685 10684 10683 10679
10679 10679 10682 10683 10683 10683 10682 10682 10681 10681 10681 10681 10682 10683 10684 10685 10687 10688 10689 10691 10693 10695 10696 10698 10699 10700 10701 10702 10703 10705 10705 10706 10707 10707 10708 10708 10708 10708 10707 10707 10707 10707 10707 10708 10708 10707 10705 10706 10708 10708 10708 10708 10704 10701 10700 10701 10702 10703 10703 10703 10703 10703 10703 10703 10703 10702 10701 10701 10699 10699 10697 10695 10694 10692 10691 10691 10688 10685 10685 10683 10680 10678 10676 10675 10673
10678 10675 10676 10680 10682 10682 10681 10680 10680 10680 10680 10680 10681 10681 10681 10682 10683 10685 10686 10688 10689 10691 10693 10694 10695 10696 10697 10698 10700 10701 10702 10703 10703 10704 10704 10705 10704 10704 10703 10702 10702 10702 10702 10702 10703 10703 10704 10705 10706 10706 10706 10705 10702 10701 10701 10700 10700 10699 10699 10699 10699 10698 10697 10698 10698 10697 10697 10696 10695 10694 10691 10690 10689 10686 10684 10684 10682 10679 10678 10676 10674 10672 10670 10668 10666
10673 10672 10673 10677 10680 10681 10681 10679 10679 10679 10679 10679 10680 10680 10680 10680 10681 10682 10683 10685 10686 10688 10689 10690 10691 10693 10694 10695 10697 10698 10699 10700 10700 10700 10700 10700 10700 10700 10699 10698 10698 10697 10697 10698 10700 10701 10701 10701 10703 10703 10703 10702 10702 10701 10700 10698 10697 10696 10695 10694 10694 10694 10693 10694 10694 10693 10693 10691 10690 10689 10686 10684 10684 10682 10679 10678 10677 10674 10672 10670 10667 10665 10663 10660 10658
10668 10671 10672 10674 10678 10679 10679 10679 10678 10677 10677 10678 10679 10679 10679 10679 10679 10680 10681 10682 10683 10684 10685 10687 10688 10689 10691 10692 10693 10694 10695 10696 10696 10696 10696 10695 10696 10696 10696 10695 10694 10694 10694 10696 10697 10697 10696 10697 10698 10699 10699 10699 10700 10699 10697 10695 10693 10691 10691 10691 10691 10690 10690 10690 10690 10689 10688 10687 10685 10683 10681 10679 10678 10677 10675 10673 10671 10668 10666 10663 10661 10658 10656 10653 10650
10667 10671 10672 10673 10676 10678 10677 10677 10677 10676 10676 10677 10677 10678 10678 10678 10678 10679 10679 10679 10680 10681 10682 10683 10685 10686 10687 10689 10690 10691 10692 10692 10692 10692 10692 10692 10692 10692 10692 10692 10690 10690 10691 10692 10692 10692 10692 10693 10694 10694 10694 10695 10696 10696 10694 10690 10687 10687 10687 10687 10687 10686 10686 10686 10685 10684 10683 10682 10680 10678 10676 10674 10671 10670 10669 10667 10665 10663 10660 10657 10654 10652 10649 10646 10641
10662 10668 10670 10672 10675 10676 10675 10674 10673 10673 10674 10675 10675 10675 10676 10677 10677 10677 10678 10678 10679 10679 10680 10681 10682 10683 10684 10685 10687 10688 10688 10688 10688 10688 10689 10689 10689 10689 10689 10688 10687 10687 10687 10688 10688 10688 10688 10689 10689 10690 10691 10691 10693 10692 10689 10685 10683 10683 10683 10683 10683 10682 10682 10681 10681 10679 10678 10677 10675 10673 10671 10669 10666 10664 10662 10660 10658 10656 10653 10651 10648 10645 10643 10639 10635
10661 10668 10672 10673 10674 10674 10673 10671 10669 10667 10668 10670 10672 10673 10673 10674 10675 10675 10676 10677 10677 10678 10678 10679 10680 10680 10681 10682 10684 10684 10684 10684 10684 10684 10685 10685 10685 10685 10685 10685 10685 10684 10684 10684 10685 10685 10686 10686 10686 10686 10687 10688 10688 10687 10684 10681 10680 10680 10679 10679 10679 10679 10678 10677 10677 10675 10674 10673 10671 10669 10667 10664 10662 10660 10657 10655 10653 10651 10648 10645 10642 10639 10636 10633 10629
10657 10670 10676 10675 10674 10673 10671 10668 10664 10662 10663 10664 10667 10670 10671 10671 10672 10673 10674 10675 10675 10675 10676 10676 10677 10677 10678 10679 10680 10681 10681 10681 10680 10680 10680 10681 10681 10681 10681 10681 10681 10681 10680 10680 10681 10682 10683 10683 10682 10682 10682 10683 10682 10681 10679 10678 10677 10676 10676 10675 10675 10675 10674 10673 10672 10671 10670 10669 10667 10665 10663 10660 10658 10656 10653 10651 10649 10646 10644 10641 10638 10634 10631 10628 10624
10651 10664 10671 10670 10670 10670 10669 10665 10662 10660 10661 10661 10662 10665 10668 10669 10669 10670 10671 10672 10672 10672 10673 10673 10673 10674 10674 10674 10675 10676 10676 10677 10676 10676 10676 10676 10676 10677 10677 10678 10678 10678 10677 10677 10678 10679 10679 10679 10679 10678 10678 10678 10677 10677 10675 10674 10673 10673 10672 10672 10671 10671 10670 10669 10668 10667 10666 10665 10664 10661 10659 10656 10653 10652 10649 10647 10645 10642 10640 10637 10634 10630 10626 10622 10619
10637 10643 10647 10652 10658 10664 10666 10664 10660 10657 10659 10661 10661 10661 10663 10665 10667 10668 10668 10668 10669 10669 10670 10670 10671 10671 10671 10671 10672 10672 10672 10673 10673 10672 10672 10672 10672 10673 10673 10674 10674 10674 10674 10675 10675 10675 10676 10675 10675 10675 10674 10674 10674 10673 10672 10671 10670 10670 10669 10669 10668 10667 10666 10666 10665 10664 10662 10661 10659 10657 10655 10652 10649 10647 10645 10642 10640 10638 10635 10632 10629 10626 10622 10618 10614
10622 10622 10625 10632 10641 10650 10654 10654 10653 10652 10653 10657 10658 10658 10659 10661 10663 10665 10665 10665 10666 10667 10667 10668 10668 10668 10668 10669 10669 10670 10670 10670 10670 10669 10669 10668 10668 10668 10669 10670 10671 10671 10672 10672 10672 10672 10672 10672 10672 10672 10672 10671 10670 10670 10669 10669 10668 10667 10666 10665 10664 10663 10662 10661 10660 10659 10658 10656 10655 10653 10651 10648 10645 10643 10640 10638 10635 10633 10631 10628 10625 10622 10618 10614 10610
10611 10613 10616 10619 10623 10629 10633 10635 10639 10643 10647 10651 10653 10654 10655 10656 10658 10661 10662 10662 10662 10664 10664 10664 10665 10665 10666 10666 10667 10667 10667 10667 10667 10666 10666 10666 10665 10664 10665 10666 10667 10668 10668 10669 10669 10669 10669 10669 10669 10669 10669 10668 10667 10667 10666 10666 10665 10664 10663 10662 10661 10660 10659 10657 10655 10655 10654 10652 10650 10648 10646 10644 10642 10639 10637 10634 10632 10629 10626 10623 10620 10617 10614 10610 10607
10602 10605 10608 10609 10613 10618 10620 10622 10628 10635 10641 10646 10649 10650 10650 10652 10654 10656 10657 10658 10659 10661 10661 10661 10661 10661 10662 10663 10663 10664 10664 10664 10664 10664 10663 10663 10662 10662 10662 10662 10663 10664 10664 10665 10665 10665 10665 10665 10665 10665 10664 10664 10664 10663 10663 10662 10662 10661 10660 10659 10657 10657 10655 10654 10652 10651 10650 10648 10646 10644 10642 10640 10637 10635 10633 10630 10628 10625 10622 10619 10616 10613 10610 10606 10603
10592 10595 10598 10599 10605 10612 10616 10619 10625 10631 10638 10643 10647 10647 10646 10647 10649 10651 10652 10653 10655 10656 10657 10656 10657 10657 10657 10658 10659 10660 10660 10661 10661 10661 10660 10660 10659 10659 10659 10659 10659 10660 10660 10661 10661 10661 10661 10661 10661 10661 10660 10660 10660 10659 10658 10658 10658 10657 10656 10655 10654 10654 10653 10651 10650 10648 10645 10644 10642 10640 10637 10635 10633 10631 10628 10626 10624 10621 10618 10615 10612 10609 10606 10603 10600
10582 10586 10588 10592 10601 10610 10615 10617 10620 10626 10633 10640 10646 10647 10643 10642 10643 10645 10646 10648 10650 10652 10652 10652 10652 10652 10653 10654 10655 10655 10656 10657 10657 10657 10656 10656 10656 10656 10655 10655 10655 10655 10656 10657 10657 10657 10657 10657 10657 10657 10656 10656 10657 10656 10655 10654 10654 10654 10654 10653 10652 10651 10649 10647 10646 10644 10641 10639 10637 10636 10633 10631 10628 10626 10624 10622 10620 10617 10615 10612 10609 10606 10603 10600 10597
10571 10576 10580 10586 10594 10602 10607 10610 10612 10616 10621 10628 10635 10640 10640 10638 10638 10639 10641 10643 10644 10646 10647 10647 10647 10648 10649 10649 10650 10650 10651 10652 10653 10653 10652 10652 10652 10652 10652 10651 10651 10651 10652 10653 10653 10653 10653 10653 10653 10653 10652 10652 10652 10652 10651 10650 10650 10651 10651 10650 10648 10647 10646 10643 10642 10640 10638 10635 10633 10631 10630 10628 10625 10622 10620 10619 10617 10614 10612 10609 10606 10603 10600 10597 10594
10560 10566 10573 10579 10584 10589 10593 10597 10602 10606 10609 10613 10618 10625 10631 10634 10634 10634 10635 10637 10638 10640 10641 10642 10643 10644 10645 10646 10646 10645 10645 10646 10648 10648 10648 10648 10648 10648 10647 10647 10647 10647 10648 10648 10649 10649 10649 10649 10649 10649 10648 10647 10647 10647 10647 10646 10645 10646 10647 10646 10644 10643 10642 10640 10637 10636 10634 10631 10628 10627 10625 10624 10621 10619 10616 10614 10612 10611 10609 10606 10603 10600 10597 10594 10591
10548 10556 10564 10570 10574 10578 10582 10585 10591 10597 10601 10604 10608 10614 10622 10628 10630 10630 10630 10631 10633 10634 10635 10636 10637 10638 10640 10641 10641 10641 10640 10640 10642 10643 10643 10643 10643 10643 10643 10643 10643 10643 10643 10643 10644 10645 10645 10645 10645 10645 10644 10643 10643 10642 10642 10640 10640 10641 10641 10640 10639 10637 10637 10636 10633 10631 10630 10627 10624 10622 10620 10619 10617 10615 10612 10609 10607 10606 10605 10603 10599 10596 10593 10590 10587
10535 10545 10554 10560 10564 10569 10573 10576 10581 10587 10593 10597 10603 10608 10614 10619 10623 10625 10626 10626 10627 10628 10629 10629 10630 10631 10632 10634 10634 10635 10635 10635 10636 10637 10637 10637 10638 10638 10638 10638 10638 10638 10638 10639 10639 10640 10640 10639 10640 10640 10640 10639 10638 10637 10636 10635 10635 10636 10635 10634 10633 10632 10632 10631 10630 10627 10625 10623 10620 10618 10616 10614 10612 10610 10608 10605 10602 10600 10600 10599 10596 10593 10590 10587 10584
10523 10534 10544 10551 10555 10559 10564 10568 10572 10578 10584 10591 10597 10601 10606 10610 10614 10618 10622 10622 10621 10621 10622 10622 10622 10623 10624 10625 10627 10628 10628 10629 10629 10631 10631 10631 10632 10633 10633 10633 10633 10633 10633 10634 10635 10635 10635 10634 10635 10635 10635 10634 10633 10632 10630 10630 10630 10630 10630 10628 10627 10626 10626 10626 10625 10623 10621 10619 10616 10614 10612 10610 10607 10605 10602 10600 10597 10594 10593 10593 10592 10589 10586 10583 10580
10512 10523 10533 10541 10546 10550 10555 10562 10567 10572 10578 10583 10588 10593 10597 10602 10607 10611 10616 10618 10616 10615 10614 10614 10615 10616 10617 10618 10619 10620 10620 10621 10622 10623 10625 10625 10625 10626 10626 10627 10627 10627 10627 10628 10629 10629 10629 10629 10630 10630 10630 10629 10628 10627 10626 10625 10624 10625 10624 10623 10621 10620 10620 10620 10619 10618 10617 10615 10612 10610 10608 10606 10605 10602 10599 10597 10594 10589 10586 10585 10585 10583 10581 10579 10576
10501 10512 10522 10531 10538 10543 10548 10555 10561 10566 10571 10575 10580 10584 10587 10594 10600 10603 10605 10610 10614 10614 10612 10610 10609 10610 10610 10611 10611 10612 10613 10614 10614 10615 10618 10619 10619 10619 10619 10620 10621 10621 10622 10623 10622 10622 10623 10624 10625 10624 10624 10623 10623 10623 10622 10620 10619 10619 10618 10617 10615 10614 10613 10613 10613 10612 10611 10609 10608 10606 10603 10601 10600 10599 10597 10595 10593 10589 10583 10580 10578 10576 10574 10572 10570
10490 10501 10512 10521 10529 10535 10542 10547 10553 10559 10564 10568 10573 10576 10577 10584 10592 10595 10594 10598 10604 10607 10608 10608 10608 10606 10606 10605 10603 10603 10606 10608 10606 10607 10610 10613 10613 10613 10612 10613 10615 10616 10616 10616 10616 10616 10616 10618 10618 10618 10618 10617 10617 10617 10616 10616 10614 10613 10612 10611 10609 10607 10606 10606 10606 10605 10604 10603 10602 10600 10598 10595 10594 10593 10591 10590 10590 10588 10583 10578 10575 10573 10570 10567 10565
10480 10490 10501 10511 10519 10527 10534 10539 10543 10549 10554 10559 10565 10571 10573 10576 10584 10587 10586 10585 10589 10592 10595 10599 10602 10602 10603 10602 10599 10596 10599 10600 10598 10597 10600 10604 10606 10607 10608 10608 10609 10610 10609 10609 10609 10610 10610 10611 10612 10612 10611 10611 10610 10610 10610 10609 10608 10607 10606 10605 10603 10602 10601 10600 10599 10598 10597 10596 10595 10594 10592 10590 10587 10586 10584 10583 10582 10582 10579 10575 10571 10569 10567 10564 10561
10469 10479 10489 10500 10510 10519 10526 10531 10535 10538 10543 10549 10556 10564 10568 10570 10574 10579 10578 10576 10578 10581 10584 10587 10590 10593 10598 10602 10598 10592 10591 10591 10589 10588 10592 10595 10598 10601 10602 10602 10602 10602 10602 10602 10603 10604 10605 10605 10605 10605 10604 10603 10603 10603 10603 10602 10601 10601 10600 10599 10597 10596 10595 10594 10592 10591 10590 10589 10588 10588 10586 10584 10581 10580 10578 10576 10574 10574 10573 10569 10565 10562 10561 10559 10557
10459 10469 10479 10490 10501 10509 10516 10522 10527 10531 10536 10541 10546 10551 10555 10558 10562 10568 10570 10568 10568 10572 10575 10578 10582 10585 10590 10595 10593 10585 10583 10583 10582 10582 10584 10587 10589 10592 10595 10595 10596 10596 10596 10597 10598 10598 10598 10598 10598 10597 10596 10596 10596 10596 10595 10594 10594 10594 10593 10592 10591 10590 10589 10588 10587 10586 10584 10583 10581 10580 10579 10577 10575 10573 10572 10570 10568 10566 10565 10564 10560 10556 10553 10552 10551
10449 10459 10469 10480 10491 10498 10505 10513 10518 10522 10527 10533 10537 10540 10543 10546 10550 10555 10559 10560 10561 10564 10567 10569 10574 10578 10582 10583 10580 10577 10576 10576 10576 10576 10577 10579 10581 10584 10586 10588 10589 10589 10589 10591 10592 10592 10591 10590 10590 10589 10589 10589 10589 10588 10587 10587 10587 10586 10586 10586 10585 10584 10583 10582 10581 10580 10579 10577 10575 10573 10571 10570 10569 10566 10565 10564 10562 10560 10559 10557 10555 10551 10545 10544 10544
10440 10450 10459 10470 10480 10488 10494 10501 10507 10513 10519 10524 10527 10531 10534 10537 10540 10544 10549 10551 10553 10556 10559 10561 10564 10568 10571 10571 10569 10568 10569 10569 10570 10571 10571 10572 10574 10576 10578 10580 10582 10582 10582 10583 10585 10585 10584 10582 10582 10582 10582 10582 10581 10581 10581 10580 10580 10579 10579 10579 10579 10578 10576 10575 10575 10575 10573 10571 10568 10566 10564 10563 10562 10559 10557 10556 10555 10554 10553 10550 10548 10545 10540 10536 10535
10430 10440 10449 10458 10469 10478 10485 10491 10497 10504 10510 10515 10518 10522 10525 10528 10531 10535 10538 10541 10544 10547 10550 10552 10554 10558 10562 10563 10561 10560 10561 10562 10564 10565 10566 10566 10568 10569 10570 10572 10573 10574 10574 10575 10576 10577 10576 10574 10574 10575 10575 10575 10574 10573 10573 10573 10573 10572 10572 10572 10572 10571 10569 10568 10567 10567 10565 10564 10562 10560 10557 10556 10555 10553 10550 10548 10548 10547 10546 10543 10541 10539 10536 10532 10528
10419 10428 10437 10446 10457 10466 10474 10481 10488 10496 10503 10508 10511 10513 10516 10520 10524 10526 10528 10531 10534 10537 10540 10543 10545 10548 10552 10554 10553 10553 10554 10555 10557 10559 10560 10561 10562 10562 10563 10564 10565 10565 10566 10566 10567 10567 10567 10567 10567 10568 10567 10566 10566 10565 10564 10563 10564 10565 10564 10564 10565 10564 10563 10561 10560 10558 10556 10555 10553 10552 10549 10548 10548 10546 10543 10541 10540 10539 10538 10536 10534 10532 10530 10528 10523
10410 10419 10428 10437 10446 10455 10464 10473 10483 10491 10498 10502 10503 10505 10508 10512 10516 10518 10520 10522 10525 10528 10531 10534 10537 10540 10543 10545 10545 10545 10546 10548 10549 10551 10552 10554 10555 10556 10556 10557 10557 10558 10557 10556 10557 10559 10559 10558 10559 10559 10559 10559 10558 10557 10555 10553 10553 10554 10554 10555 10555 10555 10554 10553 10552 10550 10549 10546 10544 10543 10540 10539 10539 10538 10536 10533 10532 10532 10531 10529 10527 10525 10523 10522 10519
10402 10412 10422 10431 10439 10446 10455 10466 10475 10482 10489 10494 10496 10498 10501 10504 10506 10508 10510 10513 10517 10521 10524 10526 10529 10532 10535 10536 10537 10537 10538 10540 10541 10543 10545 10547 10547 10548 10548 10549 10549 10549 10547 10547 10549 10550 10550 10550 10551 10551 10551 10551 10550 10549 10548 10546 10545 10544 10544 10545 10545 10544 10543 10543 10543 10542 10541 10539 10537 10536 10533 10531 10530 10530 10529 10526 10524 10523 10523 10521 10520 10518 10516 10514 10513
10396 10405 10415 10424 10432 10440 10449 10459 10465 10469 10476 10484 10488 10490 10492 10495 10497 10499 10501 10504 10509 10512 10515 10517 10520 10522 10525 10528 10529 10530 10532 10533 10534 10535 10537 10538 10539 10539 10540 10539 10540 10539 10538 10539 10541 10542 10541 10541 10542 10543 10543 10543 10543 10542 10541 10540 10539 10538 10537 10537 10536 10534 10534 10533 10533 10532 10532 10532 10531 10529 10527 10525 10522 10521 10521 10519 10515 10513 10513 10513 10512 10510 10508 10506 10505
10390 10399 10409 10418 10426 10434 10443 10451 10457 10463 10471 10477 10480 10482 10484 10485 10487 10489 10493 10497 10501 10504 10506 10509 10512 10514 10518 10521 10522 10524 10525 10526 10527 10527 10527 10528 10529 10531 10531 10530 10529 10530 10531 10532 10533 10533 10533 10533 10533 10534 10535 10535 10535 10534 10533 10533 10532 10531 10530 10529 10528 10527 10526 10526 10525 10523 10522 10522 10522 10521 10520 10519 10516 10513 10512 10510 10508 10505 10503 10503 10502 10502 10500 10497 10496
10384 10395 10404 10412 10420 10428 10436 10443 10449 10457 10464 10468 10469 10470 10470 10472 10476 10480 10484 10489 10493 10496 10499 10503 10505 10508 10511 10513 10514 10515 10515 10516 10516 10516 10516 10518 10519 10520 10521 10522 10520 10520 10522 10524 10525 10525 10524 10524 10523 10524 10525 10525 10526 10525 10525 10524 10523 10522 10521 10521 10519 10518 10518 10517 10516 10514 10513 10512 10512 10511 10510 10510 10509 10507 10504 10501 10498 10496 10494 10493 10492 10492 10491 10489 10487
10379 10389 10398 10406 10414 10422 10428 10433 10439 10444 10449 10452 10455 10456 10458 10462 10467 10472 10476 10480 10485 10488 10492 10495 10497 10499 10501 10501 10503 10504 10503 10503 10504 10506 10508 10509 10509 10509 10511 10514 10513 10511 10512 10514 10516 10517 10516 10515 10515 10514 10514 10514 10515 10515 10514 10513 10512 10511 10510 10510 10510 10509 10508 10507 10506 10505 10504 10502 10501 10501 10500 10499 10498 10497 10495 10493 10490 10487 10484 10483 10481 10481 10480 10479 10478
10376 10386 10393 10400 10408 10414 10420 10424 10427 10432 10436 10440 10444 10447 10451 10456 10459 10462 10466 10472 10476 10479 10482 10485 10486 10488 10489 10491 10492 10493 10492 10493 10495 10497 10500 10501 10501 10500 10500 10503 10504 10504 10503 10504 10505 10506 10507 10506 10506 10505 10504 10504 10504 10504 10503 10502 10500 10499 10498 10498 10498 10498 10497 10496 10496 10495 10494 10493 10492 10491 10489 10488 10487 10485 10484 10483 10481 10478 10475 10473 10471 10470 10469 10469 10468
10366 10378 10387 10394 10399 10404 10409 10412 10414 10419 10424 10429 10434 10438 10443 10447 10450 10453 10458 10462 10465 10468 10471 10472 10474 10476 10479 10481 10482 10484 10484 10485 10487 10489 10490 10492 10492 10491 10491 10492 10493 10494 10494 10494 10495 10496 10496 10496 10494 10494 10494 10494 10493 10492 10491 10489 10488 10487 10488 10487 10487 10486 10486 10486 10485 10484 10483 10483 10481 10480 10479 10477 10476 10474 10473 10472 10471 10469 10467 10465 10462 10460 10459 10458 10457
10353 10364 10376 10384 10390 10394 10397 10400 10402 10408 10414 10419 10424 10428 10433 10437 10441 10445 10448 10452 10455 10458 10459 10461 10463 10466 10470 10472 10474 10476 10477 10478 10479 10480 10481 10482 10482 10482 10482 10482 10483 10484 10484 10485 10486 10487 10487 10485 10483 10483 10483 10483 10482 10482 10480 10478 10476 10476 10476 10476 10477 10477 10476 10475 10474 10473 10472 10471 10469 10468 10467 10466 10465 10463 10462 10461 10460 10459 10457 10456 10454 10452 10450 10449 10448
10346 10355 10363 10369 10375 10381 10386 10390 10395 10400 10406 10412 10416 10420 10424 10428 10433 10436 10439 10442 10446 10449 10450 10453 10456 10458 10460 10463 10465 10467 10468 10470 10471 10471 10472 10472 10472 10472 10472 10474 10475 10474 10474 10474 10474 10475 10475 10473 10472 10471 10471 10470 10470 10470 10469 10467 10466 10466 10465 10465 10465 10466 10465 10463 10462 10460 10460 10459 10458 10457 10456 10454 10453 10452 10450 10450 10449 10448 10447 10446 10445 10443 10442 10440 10439
10344 10351 10356 10359 10364 10370 10376 10381 10386 10392 10398 10403 10408 10411 10415 10419 10424 10428 10431 10434 10437 10440 10444 10447 10449 10450 10451 10454 10456 10458 10459 10461 10461 10462 10462 10462 10463 10463 10464 10466 10466 10465 10464 10464 10464 10463 10462 10461 10460 10459 10458 10458 10458 10458 10456 10455 10454 10454 10454 10453 10453 10452 10451 10449 10448 10447 10447 10447 10446 10445 10444 10443 10442 10440 10439 10438 10437 10436 10435 10434 10433 10433 10432 10430 10429
10338 10345 10350 10354 10359 10365 10370 10375 10379 10385 10390 10395 10399 10403 10406 10410 10414 10419 10422 10425 10428 10432 10435 10438 10440 10441 10443 10445 10447 10448 10450 10451 10451 10452 10452 10452 10454 10455 10456 10456 10455 10454 10454 10454 10453 10451 10451 10450 10450 10449 10447 10447 10446 10445 10443 10443 10442 10441 10442 10443 10442 10440 10437 10435 10435 10435 10436 10436 10435 10435 10435 10434 10432 10430 10428 10426 10425 10424 10423 10422 10420 10420 10420 10419 10418
10328 10335 10341 10346 10352 10358 10365 10370 10373 10377 10381 10385 10389 10393 10397 10401 10405 10409 10413 10417 10420 10423 10425 10428 10430 10431 10433 10434 10436 10438 10440 10440 10441 10441 10442 10443 10445 10445 10445 10444 10443 10443 10443 10443 10441 10441 10441 10440 10440 10439 10437 10436 10435 10434 10433 10432 10432 10432 10433 10433 10431 10427 10425 10425 10425 10425 10425 10425 10425 10425 10424 10423 10422 10419 10417 10415 10413 10411 10410 10408 10407 10406 10406 10406 10405
10322 10328 10333 10339 10345 10351 10357 10362 10365 10369 10373 10377 10381 10385 10388 10392 10395 10399 10403 10407 10410 10413 10415 10417 10420 10422 10423 10425 10426 10427 10427 10428 10429 10430 10431 10433 10434 10435 10433 10432 10432 10432 10432 10431 10430 10430 10430 10430 10429 10428 10427 10426 10425 10423 10422 10422 10423 10424 10424 10422 10418 10414 10413 10414 10414 10414 10413 10412 10412 10411 10411 10409 10408 10406 10404 10402 10399 10397 10395 10393 10391 10390 10390 10391 10391
10317 10322 10327 10332 10337 10342 10347 10352 10356 10360 10364 10368 10372 10376 10379 10383 10387 10391 10394 10397 10400 10402 10405 10408 10411 10413 10414 10415 10414 10415 10416 10418 10419 10420 10421 10422 10423 10423 10422 10421 10420 10421 10421 10419 10419 10418 10418 10417 10417 10415 10414 10413 10412 10411 10410 10411 10412 10413 10411 10408 10404 10402 10400 10400 10401 10400 10399 10397 10396 10395 10394 10394 10392 10391 10390 10388 10386 10384 10382 10379 10377 10375 10374 10375 10376
10311 10317 10322 10326 10330 10335 10339 10343 10348 10352 10356 10360 10363 10367 10371 10375 10379 10382 10385 10388 10391 10393 10396 10399 10401 10402 10403 10404 10404 10405 10407 10408 10409 10409 10410 10410 10410 10410 10409 10409 10410 10410 10410 10408 10408 10407 10405 10404 10403 10402 10400 10399 10398 10396 10396 10398 10399 10397 10394 10391 10390 10388 10386 10386 10385 10385 10383 10382 10381 10380 10379 10378 10377 10376 10375 10374 10373 10372 10370 10367 10364 10362 10361 10361 10362
10305 10310 10315 10320 10324 10328 10332 10336 10340 10344 10348 10352 10355 10359 10364 10368 10370 10373 10376 10380 10382 10384 10386 10389 10391 10392 10393 10394 10395 10396 10397 10398 10398 10398 10398 10399 10399 10398 10397 10397 10398 10398 10398 10398 10398 10396 10393 10392 10390 10389 10387 10385 10383 10382 10383 10386 10385 10381 10377 10376 10375 10374 10372 10372 10371 10370 10369 10368 10367 10365 10363 10362 10362 10361 10360 10359 10358 10357 10356 10355 10353 10350 10349 10349 10350
10298 10303 10308 10312 10317 10322 10326 10330 10334 10337 10341 10345 10348 10352 10355 10358 10361 10364 10368 10371 10373 10374 10377 10379 10381 10382 10383 10384 10386 10386 10386 10386 10386 10386 10387 10388 10388 10387 10385 10385 10385 10386 10386 10387 10386 10384 10382 10380 10379 10377 10375 10373 10371 10370 10371 10373 10372 10367 10364 10363 10362 10361 10359 10358 10357 10355 10354 10352 10351 10350 10348 10347 10347 10346 10345 10344 10343 10342 10342 10342 10341 10340 10339 10338 10338